Regional Weather Roundup
Issued by NWS

Home | Current Version | Previous Version | Text Only | Print | Product List | Glossary On
Versions: 1 2 3 4 5 6 7 8 9 10 11 12 13 14 15 16 17 18 19 20 21 22 23 24 25 26 27 28 29 30 31 32 33 34 35 36 37 38 39 40 41 42 43 44 45 46 47 48 49 50
000
ASUS43 KDTX 310710
RWRMI
MICHIGAN HOURLY REGIONAL WEATHER ROUNDUP
NATIONAL WEATHER SERVICE DETROIT/PONTIAC MI
200 AM EST SAT JAN 31 2015

NOTE: "FAIR" INDICATES FEW OR NO CLOUDS BELOW 12,000 FEET WITH NO
SIGNIFICANT WEATHER AND/OR OBSTRUCTION TO VISIBILITY.

MIZ047>049-052>055-059>063-066>070-074>076-081>083-310800-
SOUTHEAST LOWER MICHIGAN

CITY           SKY/WX    TMP DP  RH WIND       PRES   REMARKS
ADRIAN         CLOUDY    16  11  80 CALM      30.36F
ALMA           CLOUDY    16  12  84 S3        30.33F
ANN ARBOR      PTCLDY     9   5  84 CALM      30.35F
BAD AXE        CLOUDY     2  -3  82 CALM      30.34F
CARO           PTCLDY     4   0  84 CALM      30.33F
DETROIT CITY   CLOUDY    16   6  65 S8        30.37F WCI   5
DETROIT        MOCLDY    13   7  77 CALM      30.37F
FLINT          PTCLDY    15   6  67 CALM      30.34F
GROSSE ILE     CLOUDY    16  10  79 CALM      30.37F
HILLSDALE      PTCLDY    10   7  90 CALM      30.32F
HOWELL         CLOUDY    15   9  76 S3        30.32F

CITY           SKY/WX    TMP DP  RH WIND       PRES   REMARKS
JACKSON        MOCLDY    14   8  77 SW5       30.32F WCI   6
LAMBERTVILLE   FAIR      16  10  79 CALM      30.38F
LANSING        MOCLDY    16  10  77 S3        30.34F
LAPEER         CLOUDY     2  -1  87 CALM      30.34F
MASON          CLOUDY    15  10  79 CALM      30.33S
MONROE         CLEAR     14  10  85 CALM      30.36F
MT. CLEMENS    CLOUDY     9   4  78 S2        30.35F
PONTIAC        MOCLDY    11   4  73 CALM      30.32F
PORT HOPE        N/A      7  -2  66 SW6       30.33F WCI  -3
PORT HURON     PTCLDY     5   0  78 S3        30.37F
TRI CITIES     CLOUDY    15   8  73 SW5       30.34F WCI   8
TROY           CLOUDY    16   6  64 SW3       30.38S
SAGINAW HB     CLOUDY    16  10  79 SW5       30.34F WCI   9
$$
MIZ043>046-050>051-056>058-064>065-071>073-077>080-310800-
SOUTHWEST LOWER MICHIGAN

CITY           SKY/WX    TMP DP  RH WIND       PRES   REMARKS
BATTLE CREEK   MOCLDY    13   8  81 S5        30.32F WCI   5
BENTON HARBOR  CLEAR     14  11  87 S3        30.33F
BIG RAPIDS     CLOUDY    14  10  85 S3        30.28F
COLDWATER      PTCLDY    10   8  92 CALM      30.33F
FREMONT        FAIR      13   7  76 CALM      30.29F
HOLLAND        MOCLDY    22  14  71 S9        30.31F WCI  12
GRAND RAPIDS   CLOUDY    19  13  77 S9        30.31F WCI   8
IONIA          CLOUDY    20  15  79 S6        30.31F WCI  12
KALAMAZOO      CLEAR     17  11  77 S6        30.33F WCI   9
LUDINGTON      MOCLDY    17  11  77 SE3       30.28F
MARSHALL       CLEAR      8   5  87 S3        30.31F
MOUNT PLEASANT CLOUDY    13  10  85 CALM      30.31F
MUSKEGON       MOCLDY    28  17  63 W8        30.30F WCI  20
SOUTH HAVEN    CLEAR     19  13  80 S3        30.32F
$$
MIZ016>042-310800-
NORTHERN LOWER MICHIGAN

CITY           SKY/WX    TMP DP  RH WIND       PRES   REMARKS
ALPENA         CLOUDY    12   5  73 SW3       30.31F
BEAVER ISLAND  LGT SNOW  21  18  88 CALM      30.23F
CADILLAC       FLURRIES  14   9  79 S6        30.22F WCI   5
CHARLEVOIX     FLURRIES  16  12  85 S8        30.27F WCI   5
FRANKFORT      CLOUDY    19  13  79 SE6       30.25F WCI  10
GAYLORD        FLURRIES  11   9  92 S7        30.21F WCI   0
GRAYLING       CLOUDY    10   7  87 CALM      30.25F
HARBOR SPRINGS CLOUDY    15  10  81 CALM      30.25F
HOUGHTON LAKE  CLOUDY    12   7  80 SE3       30.26F
MANISTEE       PTCLDY    16   9  73 SE3       30.27F
OSCODA         CLOUDY     8   2  76 SW3       30.32F
PELLSTON       LGT SNOW  12   9  87 SE3       30.25F FOG
ROGERS CITY    CLOUDY    12   9  85 S6        30.30F WCI   3
TRAVERSE CITY  CLOUDY    16   8  71 S5        30.26F WCI   9
$$
MIZ007>008-015-310800-
EASTERN UPPER MICHIGAN

CITY           SKY/WX    TMP DP  RH WIND       PRES   REMARKS
KINROSS        CLOUDY    12  10  92 S5        30.23F WCI   4
MACKINAC ISLAN LGT SNOW  15  11  86 S5        30.24F WCI   7
NEWBERRY       FLURRIES   9   7  92 S6        30.20F WCI  -1
S. S. MARIE    LGT SNOW  10   6  84 CALM      30.24F FOG
MUNISING         N/A     17  11  77 S6        30.19F WCI   9
$$
MIZ004>006-011>014-085-310800-
CENTRAL UPPER MICHIGAN

CITY           SKY/WX    TMP DP  RH WIND       PRES   REMARKS
MANISTIQUE     LGT SNOW  18  15  89 SW5       30.21F WCI  11
ESCANABA       CLOUDY    18   9  68 SW6       30.22F WCI   9
MENOMINEE      CLOUDY    19  10  68 SW3       30.23F
SAWYER-GWINN   LGT SNOW  15  11  85 SW8       30.13F WCI   4
$$
MIZ001>003-009>011-084-310800-
WESTERN UPPER MICHIGAN

CITY           SKY/WX    TMP DP  RH WIND       PRES   REMARKS
IRON MOUNTAIN  CLOUDY    17   6  62 S6        30.14F WCI   9
HOUGHTON       FLURRIES  16  11  80 SW6       30.09F WCI   7
COPPER HARBOR    N/A     16  11  80 SW8       30.11F WCI   5
IRONWOOD       CLOUDY    19  12  73 SW7       30.08F WCI  10
$$

ABBREVIATIONS USED IN REMARKS
   TC - TEMPERATURE IN CELSIUS
  WCI - WIND CHILL INDEX
   HX - HEAT INDEX
  VSB - VISIBILITY



USA.gov is the U.S. government's official web portal to all federal, state and local government web resources and services.